Skip Page Navigation
NASA JPL Caltech
NASA Logo - Jet Propulsion Laboratory + View the NASA Portal
+ Center for Near-Earth Object Studies
JPL Home Earth Solar System Stars & Galaxies Technology
JPL Solar System Dynamics
BODIES ORBITS EPHEMERIDES TOOLS PHYSICAL DATA DISCOVERY FAQ SITE MAP
JPL Small-Body Database Browser
Search: [ help ]  
93 Minerva (A867 QA)
Classification: Main-belt Asteroid          SPK-ID: 2000093
Ephemeris | Orbit Diagram | Orbital Elements | Mission Design | Physical Parameters | Discovery Circumstances ]

[ hide orbit diagram ]

For accurate long-term ephemerides, please instead use our Horizons system.This orbit viewer was implemented using two-body methods, and hence should not be used for determining accurate long-term trajectories (over several years or decades) or planetary encounter circumstances.


Orbital Elements at Epoch 2459200.5 (2020-Dec-17.0) TDB
Reference: JPL 122 (heliocentric ecliptic J2000)
 Element Value Uncertainty (1-sigma)   Units 
e .139049531237599 1.0052e-08  
a 2.75616187614781 6.694e-09 au
q 2.372918859254515 2.9405e-08 au
i 8.557247781480532 2.319e-07 deg
node 4.023836931842145 2.4401e-06 deg
peri 275.0073489999482 8.5615e-06 deg
M 246.1501735979231 1.1542e-05 deg
tp 2459729.049152250402
(2022-May-29.54915225)
5.5055e-05 TDB
period 1671.30421559144
4.58
6.0887e-06
1.667e-08
d
yr
n .2154006413922694 7.8473e-10 deg/d
Q 3.139404893041104 7.6248e-09 au
  Orbit Determination Parameters
   # obs. used (total)      2944  
   data-arc span      55178 days (151.07 yr)  
   first obs. used      1870-02-25  
   last obs. used      2021-03-23  
   planetary ephem.      DE441  
   SB-pert. ephem.      SB441-N16  
   condition code      0  
   norm. resid. RMS      .44995  
   source      ORB  
   producer      Otto Matic  
   solution date      2021-May-03 17:50:56  

Additional Information
 Earth MOID = 1.37412 au 
 Jupiter MOID = 2.06522 au 
 T_jup = 3.313 
[ show covariance matrix ]

Ephemeris | Orbit Diagram | Orbital Elements | Mission Design | Physical Parameters | Discovery Circumstances ]

Physical Parameter Table
Parameter Symbol Value Units Sigma Reference Notes
absolute magnitude H 7.94   n/a MPCxxxxx  
diameter diameter 154.155 km 1.298 urn:nasa:pds:neowise_diameters_albedos::2.0[mainbelt] (http://adsabs.harvard.edu/abs/2012ApJ...759L...8M)  
rotation period rot_per 5.982 h n/a LCDB (Rev. 2020-October); Warner et al., 2009 Published Reference List:
[Debehogne, H.; Lagerkvist, C.-I.; Zappala, V. (1982) Astron. Astrophys. Suppl. Ser. 50, 277-281.]
[Harris, A.W.; Young, J.W. (1989) Icarus 81, 314-364.]
[Harris, A.W.; Young, J.W.; Bowell, E.; Tholen, D.J. (1999) Icarus 142, 173-201.]
[Tungalag, N.; Shevchenko, V.G.; Lupishko, D.F. (2002) Kin. Fiz. Neb. Tel 18, 508-516; Kinematics and Physics of Celestial Bodies 18, ???-???.]
[Torppa, J.; Hentunen, V.-P.; Paakkonen, P.; Kehusmaa, P.; Muinonen, K. (2008) Icarus 198, 91-107.]
[Behrend, R. (2011) Observatoire de Geneve web site, http://obswww.unige.ch/~behrend/page_cou.html]
[Marchis, F.; Descamps, P.; Dalba, P.; Enriquez, J.E.; et al. (2011) EPSC-DPS2011 #653-3.]
[Behrend, R. (2012) Observatoire de Geneve web site, http://obswww.unige.ch/~behrend/page_cou.html]
[Marchis, F.; Vachier, F.; Durech, J.; Enriquez, J.E.; et al. (2013) Icarus 224, 178-191.]
[Hanus, J.; Viikinkoski, M.; Marchis, F.; Durech, J.; et al (2017) Astron. Astrophys. 601, A114.]
[Behrend, R. (2018) Observatoire de Geneve web site, http://obswww.unige.ch/~behrend/page_cou.html]
[Behrend, R. (2019) Observatoire de Geneve web site, http://obswww.unige.ch/~behrend/page_cou.html]
geometric albedo albedo 0.056   0.008 urn:nasa:pds:neowise_diameters_albedos::2.0[mainbelt] (http://adsabs.harvard.edu/abs/2012ApJ...759L...8M)  
B-V BV 0.685   0.024 EAR-A-5-DDR-UBV-MEAN-VALUES-V1.2 #obs=11; phase (min.=1.99, mean=14.12, max.=20.65) deg.
U-B UB 0.315   0.029 EAR-A-5-DDR-UBV-MEAN-VALUES-V1.2 #obs=8; phase (min.=1.99, mean=14.28, max.=23.05) deg.
Tholen spectral type spec_T CU   n/a EAR-A-5-DDR-TAXONOMY-V4.0 used 7 color indices; used ground-based radiometric albedo
SMASSII spectral type spec_B C   n/a EAR-A-5-DDR-TAXONOMY-V4.0 based on a high-resolution spectrum by Xu et al. (1995) or Bus and Binzel (2002)

93 Minerva (A867 QA)          Discovered 1867-Aug-24 by Watson, J. C. at Ann Arbor
Reference: DISCOVERY.DBLast Updated: 2003-08-29

Alternate Designations
 A867 QA = 1949 QN2 = A902 DA 
Ephemeris | Orbit Diagram | Orbital Elements | Mission Design | Physical Parameters | Discovery Circumstances ]
ABOUT SSD CREDITS/AWARDS PRIVACY/COPYRIGHT GLOSSARY LINKS
FirstGov 2021-May-06 17:28 UT
(server date/time)  
NASA Home Page
Site Manager:   Ryan S. Park
Webmaster  Alan B. Chamberlin